This is the latest recevied weather packets stored in our database for station/object DH5RAE-11. If no packets are shown the sender has not sent any weather packets the latest 10 day(s).
| Time | Temp. | Humidity | Pressure | Rain* | Wind** | Luminosity | Snow |
|---|---|---|---|---|---|---|---|
| 1787512189 | 11.67° C | 82% | 1025 hPa | 0 mm | - | - | - |
| 1787511382 | 12.22° C | 81% | 1025 hPa | 0 mm | - | - | - |
| 1787510781 | 12.78° C | 81% | 1024.8 hPa | 0 mm | - | - | - |
| 1787510180 | 13.33° C | 80% | 1024.6 hPa | 0 mm | - | - | - |
| 1787509580 | 13.33° C | 79% | 1024.6 hPa | 0 mm | - | - | - |
| 1787508978 | 14.44° C | 78% | 1024.6 hPa | 0 mm | - | - | - |
| 1787508239 | 14.44° C | 77% | 1024.6 hPa | 0 mm | - | - | - |
| 1787507638 | 15° C | 76% | 1024.4 hPa | 0 mm | - | - | - |
| 1787507036 | 15.56° C | 75% | 1024.6 hPa | 0 mm | - | - | - |
| 1787506367 | 15.56° C | 73% | 1024.6 hPa | 0 mm | - | - | - |
| 1787505698 | 16.67° C | 72% | 1024.7 hPa | 0 mm | - | - | - |
| 1787505098 | 16.67° C | 71% | 1024.7 hPa | 0 mm | - | - | - |
| 1787504429 | 17.22° C | 69% | 1024.4 hPa | 0 mm | - | - | - |
| 1787503829 | 18.33° C | 68% | 1024.4 hPa | 0 mm | - | - | - |
| 1787503090 | 18.33° C | 67% | 1024.5 hPa | 0 mm | - | - | - |
| 1787502419 | 18.33° C | 67% | 1024.5 hPa | 0 mm | - | - | - |
| 1787501818 | 18.89° C | 67% | 1024.5 hPa | 0 mm | - | - | - |
| 1787501217 | 18.89° C | 66% | 1024.5 hPa | 0 mm | - | - | - |
| 1787500616 | 18.89° C | 66% | 1024.5 hPa | 0 mm | - | - | - |
| 1787499946 | 19.44° C | 64% | 1024.4 hPa | 0 mm | - | - | - |
| 1787499276 | 19.44° C | 62% | 1024.4 hPa | 0 mm | - | - | - |
| 1787498607 | 19.44° C | 61% | 1024.4 hPa | 0 mm | - | - | - |
| 1787497939 | 19.44° C | 61% | 1024.4 hPa | 0 mm | - | - | - |
| 1787497199 | 20° C | 60% | 1024.4 hPa | 0 mm | - | - | - |
| 1787496529 | 20° C | 57% | 1024.3 hPa | 0 mm | - | - | - |
* Rain latest hour (hover to see other rain measurements)
** Current wind speed in m/s (hover to see current wind gust speed)